| time (UTC) | temp F | wind direction | speed MPH | gust MPH | rain 1hr in | rain 24hr in | rain mn in | humidity % | barometer mb |
| 20260902164853 | 91 | 166 | 2.0 | 8.0 | 0.00 | 0.00 | 0.00 | 62 | 1019.8 |
| 20260902163825 | 91 | 182 | 3.0 | 7.0 | 0.00 | 0.00 | 0.00 | 62 | 1020.0 |
| 20260902162816 | 90 | 233 | 1.0 | 6.0 | 0.00 | 0.00 | 0.00 | 64 | 1020.1 |
| 20260902161835 | 90 | 195 | 4.0 | 8.0 | 0.00 | 0.00 | 0.00 | 62 | 1020.1 |
| 20260902160826 | 89 | 310 | 2.0 | 6.0 | 0.00 | 0.00 | 0.00 | 63 | 1020.2 |
| 20260902155829 | 88 | 182 | 1.0 | 8.0 | 0.00 | 0.00 | 0.00 | 65 | 1020.3 |
| 20260902154830 | 88 | 323 | 1.0 | 3.0 | 0.00 | 0.00 | 0.00 | 67 | 1020.4 |
| 20260902153820 | 87 | 163 | 0.0 | 5.0 | 0.00 | 0.00 | 0.00 | 68 | 1020.4 |
| 20260902152816 | 87 | 288 | 0.0 | 4.0 | 0.00 | 0.00 | 0.00 | 67 | 1020.4 |
| 20260902151836 | 86 | 310 | 0.0 | 6.0 | 0.00 | 0.00 | 0.00 | 69 | 1020.4 |
| 20260902150831 | 85 | 298 | 0.0 | 3.0 | 0.00 | 0.00 | 0.00 | 70 | 1020.5 |
| 20260902145834 | 85 | 299 | 0.0 | 3.0 | 0.00 | 0.00 | 0.00 | 71 | 1020.4 |
| 20260902144816 | 84 | 304 | 0.0 | 4.0 | 0.00 | 0.00 | 0.00 | 72 | 1020.4 |
| 20260902143836 | 83 | 247 | 0.0 | 2.0 | 0.00 | 0.00 | 0.00 | 73 | 1020.4 |
| 20260902142828 | 82 | 313 | 3.0 | 7.0 | 0.00 | 0.00 | 0.00 | 74 | 1020.4 |
| 20260902141821 | 82 | 161 | 1.0 | 5.0 | 0.00 | 0.00 | 0.00 | 75 | 1020.4 |
| 20260902140839 | 81 | 298 | 1.0 | 3.0 | 0.00 | 0.00 | 0.00 | 76 | 1020.4 |
| 20260902135842 | 80 | 290 | 1.0 | 6.0 | 0.00 | 0.00 | 0.00 | 77 | 1020.4 |
| 20260902134823 | 79 | 169 | 2.0 | 4.0 | 0.00 | 0.00 | 0.00 | 78 | 1020.4 |
| 20260902133814 | 78 | 169 | 1.0 | 5.0 | 0.00 | 0.00 | 0.00 | 78 | 1020.4 |
| 20260902132834 | 78 | 169 | 1.0 | 5.0 | 0.00 | 0.00 | 0.00 | 78 | 1020.5 |
| 20260902131825 | 77 | 170 | 1.0 | 3.0 | 0.00 | 0.00 | 0.00 | 78 | 1020.4 |
| 20260902130817 | 77 | 172 | 1.0 | 4.0 | 0.00 | 0.00 | 0.00 | 78 | 1020.5 |
| 20260902125820 | 76 | 173 | 1.0 | 6.0 | 0.00 | 0.00 | 0.00 | 79 | 1020.4 |
| 20260902124824 | 76 | 148 | 2.0 | 4.0 | 0.00 | 0.00 | 0.00 | 79 | 1020.3 |
| 20260902123815 | 76 | 163 | 0.0 | 0.0 | 0.00 | 0.00 | 0.00 | 79 | 1020.2 |
| 20260902122834 | 75 | 166 | 0.0 | 0.0 | 0.00 | 0.00 | 0.00 | 79 | 1020.1 |
| 20260902121825 | 75 | 165 | 0.0 | 0.0 | 0.00 | 0.00 | 0.00 | 79 | 1019.9 |
| 20260902120816 | 74 | 169 | 0.0 | 0.0 | 0.00 | 0.00 | 0.00 | 79 | 1019.9 |
| 20260902115819 | 73 | 169 | 0.0 | 0.0 | 0.00 | 0.00 | 0.00 | 81 | 1019.9 |
| 20260902114824 | 73 | 169 | 0.0 | 0.0 | 0.00 | 0.00 | 0.00 | 82 | 1019.7 |
| 20260902113815 | 72 | 169 | 0.0 | 0.0 | 0.00 | 0.00 | 0.00 | 82 | 1019.7 |
| 20260902112826 | 72 | 169 | 0.0 | 0.0 | 0.00 | 0.00 | 0.00 | 82 | 1019.6 |
| 20260902111841 | 72 | 169 | 0.0 | 0.0 | 0.00 | 0.00 | 0.00 | 82 | 1019.5 |
| 20260902110832 | 73 | 169 | 0.0 | 0.0 | 0.00 | 0.00 | 0.00 | 81 | 1019.5 |
| 20260902105815 | 73 | 169 | 0.0 | 0.0 | 0.00 | 0.00 | 0.00 | 81 | 1019.5 |
| 20260902104838 | 73 | 169 | 0.0 | 0.0 | 0.00 | 0.00 | 0.00 | 81 | 1019.4 |
| 20260902103830 | 73 | 169 | 0.0 | 0.0 | 0.00 | 0.00 | 0.00 | 81 | 1019.4 |
| 20260902102825 | 73 | 169 | 0.0 | 0.0 | 0.00 | 0.00 | 0.00 | 81 | 1019.4 |
| 20260902101822 | 73 | 169 | 0.0 | 0.0 | 0.00 | 0.00 | 0.00 | 81 | 1019.3 |
| 20260902100839 | 73 | 169 | 0.0 | 0.0 | 0.00 | 0.00 | 0.00 | 81 | 1019.3 |
| 20260902095840 | 74 | 169 | 0.0 | 0.0 | 0.00 | 0.00 | 0.00 | 80 | 1019.2 |
| 20260902094821 | 74 | 169 | 0.0 | 0.0 | 0.00 | 0.00 | 0.00 | 80 | 1019.2 |
| 20260902093818 | 74 | 169 | 0.0 | 0.0 | 0.00 | 0.00 | 0.00 | 80 | 1019.1 |
| 20260902092835 | 74 | 169 | 0.0 | 0.0 | 0.00 | 0.00 | 0.00 | 80 | 1019.2 |
| 20260902091826 | 74 | 169 | 0.0 | 0.0 | 0.00 | 0.00 | 0.00 | 80 | 1019.2 |
| 20260902090844 | 74 | 169 | 0.0 | 0.0 | 0.00 | 0.00 | 0.00 | 80 | 1019.0 |
| 20260902085848 | 74 | 169 | 0.0 | 0.0 | 0.00 | 0.00 | 0.00 | 80 | 1019.0 |
| 20260902084831 | 75 | 168 | 0.0 | 0.0 | 0.00 | 0.00 | 0.00 | 80 | 1018.9 |
| 20260902083824 | 75 | 168 | 0.0 | 2.0 | 0.00 | 0.00 | 0.00 | 79 | 1018.8 |
| 20260902082818 | 75 | 168 | 1.0 | 2.0 | 0.00 | 0.00 | 0.00 | 79 | 1018.8 |
| 20260902081838 | 75 | 168 | 0.0 | 2.0 | 0.00 | 0.00 | 0.00 | 79 | 1018.7 |
| 20260902080829 | 75 | 168 | 0.0 | 2.0 | 0.00 | 0.00 | 0.00 | 80 | 1018.6 |
| 20260902075833 | 75 | 168 | 0.0 | 2.0 | 0.00 | 0.00 | 0.00 | 80 | 1018.6 |
| 20260902074818 | 75 | 168 | 0.0 | 3.0 | 0.00 | 0.00 | 0.00 | 80 | 1018.5 |
| 20260902073839 | 75 | 168 | 0.0 | 3.0 | 0.00 | 0.00 | 0.00 | 80 | 1018.5 |
| 20260902072829 | 75 | 169 | 0.0 | 3.0 | 0.00 | 0.00 | 0.00 | 80 | 1018.6 |
| 20260902071850 | 75 | 169 | 0.0 | 0.0 | 0.00 | 0.00 | 0.00 | 80 | 1018.6 |
| 20260902070821 | 75 | 169 | 0.0 | 0.0 | 0.00 | 0.00 | 0.00 | 80 | 1018.6 |
| 20260902065844 | 75 | 169 | 0.0 | 1.0 | 0.00 | 0.00 | 0.00 | 80 | 1018.6 |
| 20260902064825 | 75 | 169 | 0.0 | 2.0 | 0.00 | 0.00 | 0.00 | 80 | 1018.6 |
| 20260902063819 | 75 | 169 | 0.0 | 1.0 | 0.00 | 0.00 | 0.00 | 80 | 1018.6 |
| 20260902062857 | 75 | 169 | 0.0 | 0.0 | 0.00 | 0.00 | 0.00 | 80 | 1018.6 |
| 20260902061827 | 75 | 169 | 0.0 | 0.0 | 0.00 | 0.00 | 0.00 | 80 | 1018.7 |
| 20260902060818 | 75 | 169 | 0.0 | 1.0 | 0.00 | 0.00 | 0.00 | 80 | 1018.7 |
| 20260902055842 | 75 | 169 | 0.0 | 0.0 | 0.00 | 0.00 | 0.00 | 80 | 1018.7 |
| 20260902054824 | 76 | 169 | 0.0 | 1.0 | 0.00 | 0.00 | 0.00 | 80 | 1018.8 |
| 20260902053844 | 76 | 169 | 0.0 | 1.0 | 0.00 | 0.00 | 0.00 | 79 | 1018.7 |
| 20260902052817 | 76 | 169 | 0.0 | 2.0 | 0.00 | 0.00 | 0.00 | 79 | 1018.7 |
| 20260902051856 | 77 | 169 | 0.0 | 2.0 | 0.00 | 0.00 | 0.00 | 79 | 1018.6 |
| 20260902050826 | 77 | 169 | 0.0 | 2.0 | 0.00 | 0.00 | 0.00 | 79 | 1018.7 |
| 20260902045829 | 77 | 169 | 0.0 | 2.0 | 0.00 | 0.00 | 0.00 | 79 | 1018.7 |
| 20260902044831 | 77 | 169 | 0.0 | 1.0 | 0.00 | 0.00 | 0.00 | 79 | 1018.7 |
| 20260902043824 | 77 | 169 | 0.0 | 1.0 | 0.00 | 0.00 | 0.00 | 79 | 1018.7 |
| 20260902042841 | 78 | 169 | 0.0 | 1.0 | 0.00 | 0.00 | 0.00 | 79 | 1018.7 |
| 20260902041837 | 78 | 169 | 0.0 | 1.0 | 0.00 | 0.00 | 0.00 | 79 | 1018.8 |
| 20260902040828 | 78 | 169 | 0.0 | 2.0 | 0.00 | 0.00 | 0.00 | 78 | 1018.7 |
| 20260902035831 | 78 | 169 | 0.0 | 2.0 | 0.00 | 0.00 | 0.00 | 78 | 1018.7 |
| 20260902034831 | 78 | 169 | 0.0 | 2.0 | 0.00 | 0.00 | 0.00 | 78 | 1018.7 |
| 20260902033826 | 79 | 169 | 0.0 | 1.0 | 0.00 | 0.00 | 0.00 | 78 | 1018.7 |
| 20260902032816 | 79 | 169 | 0.0 | 1.0 | 0.00 | 0.00 | 0.00 | 78 | 1018.7 |
| 20260902031835 | 79 | 169 | 0.0 | 3.0 | 0.00 | 0.00 | 0.00 | 77 | 1018.7 |
| 20260902030826 | 79 | 169 | 0.0 | 2.0 | 0.00 | 0.00 | 0.00 | 77 | 1018.7 |
| 20260902025814 | 79 | 169 | 1.0 | 2.0 | 0.00 | 0.00 | 0.00 | 77 | 1018.7 |
| 20260902024833 | 79 | 169 | 0.0 | 2.0 | 0.00 | 0.00 | 0.00 | 77 | 1018.8 |
| 20260902023830 | 79 | 169 | 0.0 | 3.0 | 0.00 | 0.00 | 0.00 | 77 | 1018.9 |
| 20260902022823 | 80 | 169 | 0.0 | 1.0 | 0.00 | 0.00 | 0.00 | 77 | 1018.8 |
| 20260902021814 | 80 | 169 | 0.0 | 0.0 | 0.00 | 0.00 | 0.00 | 77 | 1018.8 |
| 20260902020832 | 80 | 169 | 0.0 | 0.0 | 0.00 | 0.00 | 0.00 | 77 | 1018.8 |
| 20260902015833 | 80 | 169 | 0.0 | 1.0 | 0.00 | 0.00 | 0.00 | 77 | 1018.7 |
| 20260902014816 | 81 | 169 | 0.0 | 0.0 | 0.00 | 0.00 | 0.00 | 77 | 1018.7 |
| 20260902013835 | 81 | 169 | 0.0 | 0.0 | 0.00 | 0.00 | 0.00 | 76 | 1018.6 |
| 20260902012853 | 81 | 169 | 0.0 | 1.0 | 0.00 | 0.00 | 0.00 | 76 | 1018.5 |
| 20260902011824 | 81 | 169 | 0.0 | 0.0 | 0.00 | 0.00 | 0.00 | 76 | 1018.4 |
| 20260902010815 | 82 | 169 | 0.0 | 0.0 | 0.00 | 0.00 | 0.00 | 75 | 1018.4 |
| 20260902005821 | 82 | 169 | 0.0 | 0.0 | 0.00 | 0.00 | 0.00 | 75 | 1018.3 |
| 20260902004825 | 82 | 169 | 0.0 | 0.0 | 0.00 | 0.00 | 0.00 | 74 | 1018.2 |
| 20260902003843 | 83 | 169 | 0.0 | 0.0 | 0.00 | 0.00 | 0.00 | 73 | 1018.2 |
| 20260902002840 | 84 | 169 | 0.0 | 1.0 | 0.00 | 0.00 | 0.00 | 72 | 1018.2 |
| 20260902001837 | 84 | 169 | 0.0 | 1.0 | 0.00 | 0.00 | 0.00 | 70 | 1018.3 |
| 20260902000830 | 86 | 169 | 0.0 | 1.0 | 0.00 | 0.00 | 0.00 | 69 | 1018.3 |
| 20260901235834 | 86 | 169 | 1.0 | 2.0 | 0.00 | 0.00 | 0.00 | 66 | 1018.3 |
| 20260901234818 | 87 | 169 | 0.0 | 2.0 | 0.00 | 0.00 | 0.00 | 65 | 1018.3 |
| 20260901233837 | 87 | 169 | 1.0 | 3.0 | 0.00 | 0.00 | 0.00 | 63 | 1018.3 |
| 20260901232830 | 88 | 169 | 1.0 | 3.0 | 0.00 | 0.00 | 0.00 | 62 | 1018.4 |
| 20260901231823 | 88 | 169 | 3.0 | 6.0 | 0.00 | 0.00 | 0.00 | 61 | 1018.5 |
| 20260901230814 | 89 | 167 | 3.0 | 6.0 | 0.00 | 0.00 | 0.00 | 60 | 1018.4 |
| 20260901225816 | 89 | 184 | 2.0 | 5.0 | 0.00 | 0.00 | 0.00 | 60 | 1018.4 |
| 20260901224858 | 89 | 194 | 3.0 | 5.0 | 0.00 | 0.00 | 0.00 | 59 | 1018.5 |
| 20260901223829 | 89 | 286 | 2.0 | 5.0 | 0.00 | 0.00 | 0.00 | 60 | 1018.4 |
| 20260901222821 | 90 | 186 | 2.0 | 4.0 | 0.00 | 0.00 | 0.00 | 58 | 1018.3 |
| 20260901221841 | 90 | 187 | 3.0 | 7.0 | 0.00 | 0.00 | 0.00 | 58 | 1018.2 |
| 20260901220830 | 90 | 176 | 2.0 | 8.0 | 0.00 | 0.00 | 0.00 | 58 | 1018.3 |
| 20260901215834 | 90 | 158 | 3.0 | 10.0 | 0.00 | 0.00 | 0.00 | 58 | 1018.3 |
| 20260901214838 | 90 | 180 | 4.0 | 6.0 | 0.00 | 0.00 | 0.00 | 58 | 1018.3 |
| 20260901213829 | 90 | 181 | 3.0 | 6.0 | 0.00 | 0.00 | 0.00 | 59 | 1018.2 |
| 20260901212820 | 90 | 135 | 3.0 | 8.0 | 0.00 | 0.00 | 0.00 | 58 | 1018.3 |
| 20260901211856 | 91 | 146 | 5.0 | 11.0 | 0.00 | 0.00 | 0.00 | 57 | 1018.3 |
| 20260901210827 | 92 | 178 | 3.0 | 6.0 | 0.00 | 0.00 | 0.00 | 57 | 1018.4 |
| 20260901205830 | 92 | 154 | 3.0 | 7.0 | 0.00 | 0.00 | 0.00 | 57 | 1018.4 |
| 20260901204834 | 93 | 127 | 2.0 | 7.0 | 0.00 | 0.00 | 0.00 | 57 | 1018.6 |
| 20260901203830 | 92 | 244 | 1.0 | 7.0 | 0.00 | 0.00 | 0.00 | 55 | 1018.6 |
| 20260901202820 | 92 | 163 | 3.0 | 6.0 | 0.00 | 0.00 | 0.00 | 56 | 1018.7 |
| 20260901201839 | 92 | 179 | 3.0 | 7.0 | 0.00 | 0.00 | 0.00 | 57 | 1018.7 |
| 20260901200828 | 92 | 193 | 3.0 | 8.0 | 0.00 | 0.00 | 0.00 | 56 | 1018.7 |
| 20260901195831 | 93 | 194 | 3.0 | 6.0 | 0.00 | 0.00 | 0.00 | 56 | 1018.8 |
| 20260901194834 | 93 | 173 | 3.0 | 6.0 | 0.00 | 0.00 | 0.00 | 55 | 1018.8 |
| 20260901193827 | 93 | 161 | 3.0 | 5.0 | 0.00 | 0.00 | 0.00 | 56 | 1018.8 |
| 20260901192847 | 94 | 160 | 3.0 | 7.0 | 0.00 | 0.00 | 0.00 | 53 | 1019.0 |
| 20260901191815 | 94 | 208 | 1.0 | 5.0 | 0.00 | 0.00 | 0.00 | 54 | 1019.1 |
| 20260901190833 | 93 | 306 | 2.0 | 4.0 | 0.00 | 0.00 | 0.00 | 56 | 1019.2 |
| 20260901185819 | 92 | 155 | 2.0 | 8.0 | 0.00 | 0.00 | 0.00 | 57 | 1019.4 |
| 20260901184843 | 92 | 186 | 2.0 | 8.0 | 0.00 | 0.00 | 0.00 | 57 | 1019.5 |
| 20260901183844 | 92 | 182 | 2.0 | 6.0 | 0.00 | 0.00 | 0.00 | 57 | 1019.4 |
| 20260901182840 | 92 | 155 | 4.0 | 8.0 | 0.00 | 0.00 | 0.00 | 58 | 1019.5 |
| 20260901181832 | 92 | 184 | 3.0 | 7.0 | 0.00 | 0.00 | 0.00 | 57 | 1019.7 |
| 20260901180824 | 91 | 172 | 2.0 | 7.0 | 0.00 | 0.00 | 0.00 | 57 | 1019.7 |
| 20260901175855 | 91 | 302 | 2.0 | 5.0 | 0.00 | 0.00 | 0.00 | 57 | 1019.6 |
| 20260901174838 | 91 | 198 | 4.0 | 8.0 | 0.00 | 0.00 | 0.00 | 59 | 1019.7 |
| 20260901173832 | 90 | 171 | 4.0 | 9.0 | 0.00 | 0.00 | 0.00 | 60 | 1019.8 |
| 20260901172823 | 89 | 179 | 4.0 | 10.0 | 0.00 | 0.00 | 0.00 | 63 | 1020.0 |
| 20260901171817 | 90 | 185 | 5.0 | 9.0 | 0.00 | 0.00 | 0.00 | 61 | 1020.0 |
| 20260901170855 | 89 | 146 | 5.0 | 8.0 | 0.00 | 0.00 | 0.00 | 62 | 1020.1 |
| 20260901165817 | 89 | 165 | 3.0 | 9.0 | 0.00 | 0.00 | 0.00 | 63 | 1020.0 |